When you browse on this site, cookies collect data to enhance your experience and personalize the content and advertising you see.
Visit our Privacy Policy to learn more. By continuing to use the site, you agree to this use of cookies and data.
  • In Czech Republic
  • List of Countries
  • For 7 days
  • Water Temperature
  • Weather Map
  • Weather Widgets
  • user-avatar
    Login

    Hourly Weather Laxou

    Today, 1 June, Monday

    Time Temperature Precipitation Wind Pressure Humidity
    00:00 +10°C° 0 mm 4 mps 739 mmHg 83%
    01:00 +8°C° 0 mm 4 mps 738 mmHg 84%
    02:00 +8°C° 0 mm 4 mps 738 mmHg 86%
    03:00 +8°C° 0 mm 4 mps 738 mmHg 87%
    04:00 +8°C° 0 mm 4 mps 738 mmHg 85%
    05:00 +9°C° 0 mm 5 mps 738 mmHg 82%
    06:00 +10°C° 0 mm 5 mps 738 mmHg 80%
    07:00 +13°C° 0 mm 5 mps 738 mmHg 76%
    08:00 +15°C° 0 mm 6 mps 739 mmHg 72%
    09:00 +17°C° 0 mm 6 mps 739 mmHg 68%
    10:00 +20°C° 0 mm 6 mps 739 mmHg 66%
    11:00 +21°C° 0 mm 6 mps 738 mmHg 64%
    12:00 +22°C° 0 mm 6 mps 738 mmHg 62%
    13:00 +22°C° 0 mm 6 mps 738 mmHg 62%
    14:00 +22°C° 0 mm 6 mps 738 mmHg 62%
    15:00 +22°C° 0 mm 5 mps 738 mmHg 63%
    16:00 +22°C° 0 mm 5 mps 738 mmHg 66%
    17:00 +21°C° 0 mm 4 mps 737 mmHg 70%
    18:00 +20°C° 0 mm 4 mps 737 mmHg 74%
    19:00 +18°C° 0 mm 4 mps 738 mmHg 75%
    20:00 +17°C° 0 mm 3 mps 738 mmHg 77%
    21:00 +14°C° 0 mm 3 mps 738 mmHg 79%
    22:00 +13°C° 0 mm 3 mps 738 mmHg 80%
    23:00 +14°C° 0 mm 2 mps 738 mmHg 82%

    Tomorrow, 2 June, Tuesday

    Time Temperature Precipitation Wind Pressure Humidity
    00:00 +13°C° 0 mm 2 mps 738 mmHg 84%
    01:00 +12°C° 0 mm 2 mps 737 mmHg 87%
    02:00 +12°C° 0 mm 2 mps 737 mmHg 89%
    03:00 +10°C° 0 mm 2 mps 737 mmHg 91%
    04:00 +13°C° 0 mm 2 mps 737 mmHg 89%
    05:00 +14°C° 0 mm 2 mps 737 mmHg 88%
    06:00 +15°C° 0 mm 2 mps 738 mmHg 86%
    07:00 +17°C° 0 mm 3 mps 738 mmHg 81%
    08:00 +18°C° 0 mm 3 mps 738 mmHg 76%
    09:00 +20°C° 0 mm 4 mps 738 mmHg 71%
    10:00 +21°C° 0 mm 4 mps 737 mmHg 67%
    11:00 +22°C° 0 mm 4 mps 737 mmHg 64%
    12:00 +23°C° 0 mm 4 mps 737 mmHg 61%
    13:00 +23°C° 0 mm 4 mps 736 mmHg 61%
    14:00 +23°C° 0 mm 4 mps 736 mmHg 62%
    15:00 +23°C° 0 mm 4 mps 735 mmHg 62%
    16:00 +22°C° 0 mm 3 mps 735 mmHg 66%
    17:00 +21°C° 0 mm 3 mps 734 mmHg 70%
    18:00 +21°C° 0 mm 2 mps 734 mmHg 74%
    19:00 +19°C° 0 mm 2 mps 734 mmHg 77%
    20:00 +17°C° 0 mm 2 mps 734 mmHg 79%
    21:00 +15°C° 0 mm 2 mps 734 mmHg 81%
    22:00 +14°C° 0 mm 1 mps 733 mmHg 82%
    23:00 +14°C° 0 mm 1 mps 733 mmHg 83%

    Day after tomorrow, 3 June, Wednesday

    Time Temperature Precipitation Wind Pressure Humidity
    00:00 +13°C° 0 mm 1 mps 732 mmHg 85%
    01:00 +13°C° 0 mm 1 mps 732 mmHg 85%
    02:00 +11°C° 0 mm 0 mps 732 mmHg 86%
    03:00 +11°C° 0 mm 0 mps 731 mmHg 87%
    04:00 +12°C° 0 mm 0 mps 731 mmHg 85%
    05:00 +13°C° 0 mm 0 mps 731 mmHg 84%
    06:00 +14°C° 0 mm 0 mps 731 mmHg 83%
    07:00 +16°C° 0 mm 0 mps 730 mmHg 79%
    08:00 +20°C° 0 mm 1 mps 730 mmHg 74%
    09:00 +22°C° 0 mm 1 mps 730 mmHg 70%
    10:00 +22°C° 0.6 mm 1 mps 730 mmHg 69%
    11:00 +23°C° 0.6 mm 1 mps 729 mmHg 68%
    12:00 +24°C° 0.6 mm 1 mps 729 mmHg 67%
    13:00 +24°C° 0.5 mm 1 mps 728 mmHg 65%
    14:00 +24°C° 0.5 mm 1 mps 728 mmHg 64%
    15:00 +24°C° 0.5 mm 1 mps 727 mmHg 62%
    16:00 +24°C° 0.2 mm 1 mps 727 mmHg 68%
    17:00 +23°C° 0.2 mm 1 mps 727 mmHg 73%
    18:00 +22°C° 0.2 mm 1 mps 726 mmHg 79%
    19:00 +20°C° 0.6 mm 1 mps 726 mmHg 81%
    20:00 +19°C° 0.6 mm 1 mps 726 mmHg 83%
    21:00 +16°C° 0.6 mm 1 mps 726 mmHg 86%
    22:00 +16°C° 0.5 mm 1 mps 726 mmHg 87%
    23:00 +16°C° 0.5 mm 1 mps 726 mmHg 89%

    4 June, Thursday

    Time Temperature Precipitation Wind Pressure Humidity
    00:00 +16°C° 0.5 mm 2 mps 726 mmHg 91%
    01:00 +16°C° 0.3 mm 2 mps 726 mmHg 92%
    02:00 +15°C° 0.3 mm 2 mps 726 mmHg 92%
    03:00 +15°C° 0.3 mm 2 mps 725 mmHg 93%
    04:00 +15°C° 0.3 mm 2 mps 726 mmHg 93%
    05:00 +15°C° 0.3 mm 2 mps 726 mmHg 94%
    06:00 +16°C° 0.3 mm 2 mps 726 mmHg 94%
    07:00 +17°C° 0.7 mm 3 mps 726 mmHg 91%
    08:00 +18°C° 0.7 mm 3 mps 726 mmHg 87%
    09:00 +19°C° 0.7 mm 4 mps 726 mmHg 84%
    10:00 +19°C° 0.8 mm 4 mps 726 mmHg 83%
    11:00 +19°C° 0.8 mm 4 mps 726 mmHg 82%
    12:00 +19°C° 0.8 mm 4 mps 726 mmHg 81%
    13:00 +19°C° 0.9 mm 4 mps 726 mmHg 80%
    14:00 +19°C° 0.9 mm 4 mps 726 mmHg 80%
    15:00 +19°C° 0.9 mm 4 mps 727 mmHg 80%
    16:00 +19°C° 0.5 mm 4 mps 727 mmHg 82%
    17:00 +18°C° 0.5 mm 3 mps 727 mmHg 84%
    18:00 +17°C° 0.5 mm 3 mps 727 mmHg 86%
    19:00 +16°C° 0.1 mm 2 mps 727 mmHg 88%
    20:00 +14°C° 0.1 mm 2 mps 728 mmHg 89%
    21:00 +13°C° 0.1 mm 2 mps 728 mmHg 91%
    22:00 +12°C° 0 mm 1 mps 728 mmHg 90%
    23:00 +12°C° 0 mm 1 mps 728 mmHg 90%

    5 June, Friday

    Time Temperature Precipitation Wind Pressure Humidity
    00:00 +11°C° 0 mm 1 mps 728 mmHg 90%
    01:00 +10°C° 0 mm 1 mps 728 mmHg 90%
    02:00 +9°C° 0 mm 0 mps 728 mmHg 89%
    03:00 +8°C° 0 mm 0 mps 728 mmHg 89%
    04:00 +11°C° 0 mm 1 mps 728 mmHg 89%
    05:00 +12°C° 0 mm 1 mps 728 mmHg 89%
    06:00 +13°C° 0 mm 2 mps 728 mmHg 90%
    07:00 +14°C° 0 mm 3 mps 728 mmHg 84%
    08:00 +15°C° 0 mm 4 mps 728 mmHg 79%
    09:00 +17°C° 0 mm 5 mps 728 mmHg 74%
    10:00 +17°C° 0.2 mm 5 mps 727 mmHg 74%
    11:00 +19°C° 0.2 mm 5 mps 727 mmHg 74%
    12:00 +20°C° 0.2 mm 5 mps 727 mmHg 74%
    13:00 +20°C° 0.2 mm 6 mps 726 mmHg 73%
    14:00 +20°C° 0.2 mm 6 mps 726 mmHg 73%
    15:00 +20°C° 0.2 mm 6 mps 725 mmHg 72%
    16:00 +19°C° 0.2 mm 5 mps 725 mmHg 76%
    17:00 +18°C° 0.2 mm 4 mps 725 mmHg 79%
    18:00 +17°C° 0.2 mm 4 mps 725 mmHg 83%
    19:00 +16°C° 0 mm 3 mps 726 mmHg 84%
    20:00 +14°C° 0 mm 3 mps 726 mmHg 84%
    21:00 +12°C° 0 mm 3 mps 726 mmHg 85%
    22:00 +12°C° 0 mm 3 mps 726 mmHg 87%
    23:00 +12°C° 0 mm 2 mps 726 mmHg 89%

    6 June, Saturday

    Time Temperature Precipitation Wind Pressure Humidity
    00:00 +10°C° 0 mm 2 mps 726 mmHg 92%
    01:00 +10°C° 0.1 mm 2 mps 727 mmHg 92%
    02:00 +10°C° 0.1 mm 3 mps 727 mmHg 93%
    03:00 +10°C° 0.1 mm 3 mps 727 mmHg 94%
    04:00 +11°C° 0.3 mm 3 mps 727 mmHg 95%
    05:00 +11°C° 0.3 mm 4 mps 728 mmHg 95%
    06:00 +11°C° 0.3 mm 4 mps 728 mmHg 95%
    07:00 +11°C° 0.3 mm 4 mps 728 mmHg 94%
    08:00 +11°C° 0.3 mm 3 mps 729 mmHg 93%
    09:00 +11°C° 0.3 mm 3 mps 729 mmHg 92%
    10:00 +13°C° 0.1 mm 4 mps 730 mmHg 83%
    11:00 +14°C° 0.1 mm 5 mps 730 mmHg 75%
    12:00 +16°C° 0.1 mm 6 mps 730 mmHg 66%
    13:00 +16°C° 0.1 mm 6 mps 730 mmHg 65%
    14:00 +16°C° 0.1 mm 6 mps 730 mmHg 64%
    15:00 +16°C° 0.1 mm 6 mps 730 mmHg 62%
    16:00 +15°C° 0.1 mm 5 mps 730 mmHg 69%
    17:00 +14°C° 0.1 mm 4 mps 730 mmHg 76%
    18:00 +13°C° 0.1 mm 3 mps 731 mmHg 82%
    19:00 +12°C° 0 mm 3 mps 731 mmHg 84%
    20:00 +12°C° 0 mm 2 mps 732 mmHg 86%
    21:00 +10°C° 0 mm 2 mps 732 mmHg 88%
    22:00 +10°C° 0 mm 2 mps 732 mmHg 88%
    23:00 +10°C° 0 mm 2 mps 733 mmHg 89%
    Show more